Date,TemperatureHighF,TemperatureAvgF,TemperatureLowF,DewpointHighF,DewpointAvgF,DewpointLowF,HumidityHigh,HumidityAvg,HumidityLow,PressureMaxIn,PressureMinIn,WindSpeedMaxMPH,WindSpeedAvgMPH,GustSpeedMaxMPH,PrecipitationSumIn
2013-7-1,84.8,73.5,61.0,61.5,56.3,53.2,81,57,38,30.17,30.10,0,0,0,0.00
2013-7-2,85.0,73.9,60.5,57.6,54.8,50.0,77,53,34,30.14,30.03,0,0,0,0.00
2013-7-3,85.9,73.0,60.3,62.6,55.7,51.5,80,57,35,30.06,29.94,0,0,0,0.00
2013-7-4,88.6,77.3,65.5,66.0,59.1,55.0,73,55,38,29.95,29.84,0,0,0,0.00
2013-7-5,88.2,78.7,68.8,67.9,62.1,56.3,69,57,47,29.89,29.78,0,0,0,0.00
2013-7-6,90.5,81.1,73.4,70.8,65.2,60.6,67,59,50,29.86,29.78,0,0,0,0.00
2013-7-7,92.5,82.4,73.8,73.2,68.5,64.2,78,63,52,29.87,29.79,0,0,0,0.00
2013-7-8,89.3,79.0,69.8,71.4,67.7,64.1,83,69,53,29.98,29.87,0,0,0,0.00
2013-7-9,84.6,77.7,70.0,72.3,68.8,64.4,92,75,63,29.94,29.74,0,0,0,0.71
2013-7-10,80.5,72.6,63.2,64.4,57.4,53.2,78,60,42,30.04,29.91,0,0,0,0.00
2013-7-11,85.7,74.4,61.6,64.6,59.2,54.6,84,61,42,30.10,29.96,0,0,0,0.00
2013-7-12,88.7,78.3,68.8,68.3,61.7,56.6,69,57,46,30.00,29.88,0,0,0,0.00
2013-7-13,77.4,72.1,65.3,70.4,64.2,59.1,94,77,57,30.06,29.89,0,0,0,4.92
2013-7-14,85.7,76.4,69.3,70.0,65.8,60.4,80,70,58,30.16,30.03,0,0,0,0.00
2013-7-15,88.4,79.3,69.1,71.1,67.7,62.3,82,68,55,30.22,30.13,0,0,0,0.00
2013-7-16,91.6,83.4,74.7,75.5,72.0,69.2,85,69,54,30.19,30.14,0,0,0,0.00
2013-7-17,92.9,83.9,74.2,74.5,71.6,68.1,83,67,50,30.23,30.09,0,0,0,0.00
2013-7-18,92.7,84.6,76.0,74.8,71.4,68.9,80,66,49,30.09,29.76,0,0,0,0.00
2013-7-19,83.9,79.4,73.3,70.7,64.5,58.8,82,61,44,29.89,29.71,0,0,0,0.03
2013-7-20,80.5,72.8,65.9,65.9,60.9,57.1,81,67,53,29.94,29.85,0,0,0,0.02
2013-7-21,81.2,70.7,59.6,69.6,61.8,52.1,90,74,65,29.95,29.77,0,0,0,0.50
2013-7-22,85.3,75.1,67.7,72.8,64.7,55.4,87,71,50,29.84,29.66,0,0,0,0.00
2013-7-23,77.0,69.1,61.6,56.1,54.3,51.6,76,60,45,30.00,29.83,0,0,0,0.01
2013-7-24,77.8,67.8,60.3,62.3,56.9,51.6,76,69,56,30.05,29.94,0,0,0,0.00
2013-7-25,81.0,72.6,61.6,68.1,61.9,56.3,85,70,52,29.96,29.88,0,0,0,0.04
2013-7-26,70.9,65.0,58.5,63.9,55.3,48.0,86,71,57,30.05,29.88,0,0,0,0.02
2013-7-27,62.3,57.9,52.0,49.9,47.1,43.9,82,68,54,30.05,29.91,0,0,0,0.00
2013-7-28,72.4,61.5,53.1,54.3,49.4,44.9,77,65,52,30.04,29.94,0,0,0,0.00
2013-7-29,77.4,66.5,53.3,59.7,54.9,47.3,87,67,51,30.10,30.03,0,0,0,0.00
2013-7-30,72.2,67.3,64.4,64.6,60.1,56.8,84,78,68,30.07,30.03,0,0,0,0.02